Date,TemperatureHighF,TemperatureAvgF,TemperatureLowF,DewpointHighF,DewpointAvgF,DewpointLowF,HumidityHigh,HumidityAvg,HumidityLow,PressureMaxIn,PressureMinIn,WindSpeedMaxMPH,WindSpeedAvgMPH,GustSpeedMaxMPH,PrecipitationSumIn
2012-1-1,80.0,64.8,56.0,24.0,16.2,9.0,24,16,7,0.00,40.00,12,6,20,0.00
2012-1-2,81.0,67.0,60.0,19.0,14.8,9.0,17,13,8,0.00,40.00,12,7,20,0.00
2012-1-3,83.0,63.7,53.0,23.0,18.9,14.0,28,19,8,0.00,40.00,7,3,13,0.00
2012-1-4,83.0,68.1,57.0,27.0,18.9,11.0,23,16,8,0.00,40.00,12,5,17,0.00
2012-1-5,84.0,63.5,48.0,24.0,20.0,13.0,35,21,8,0.00,40.00,10,2,15,0.00
2012-1-6,82.0,55.7,42.0,31.0,26.0,16.0,56,35,9,0.00,40.00,2,1,7,0.00
2012-1-7,77.0,58.1,44.0,38.0,30.8,24.0,68,40,15,0.00,40.00,3,1,7,0.00
2012-1-8,70.0,62.0,55.0,26.0,14.0,6.0,32,16,9,0.00,40.00,20,11,32,0.00
2012-1-9,77.0,57.4,49.0,21.0,14.6,7.0,31,20,8,0.00,40.00,11,4,19,0.00
2012-1-10,75.0,54.5,42.0,27.0,23.0,16.0,53,33,11,0.00,40.00,3,1,7,0.00
2012-1-11,75.0,56.3,42.0,32.0,27.1,10.0,55,36,11,0.00,40.00,12,3,22,0.00
2012-1-12,66.0,60.8,55.0,9.0,6.6,4.0,15,11,9,0.00,40.00,14,8,21,0.00
2012-1-13,71.0,58.8,48.0,4.0,0.2,-4.0,14,10,5,0.00,40.00,13,7,19,0.00
2012-1-14,70.0,54.8,44.0,18.0,5.8,-5.0,30,15,5,0.00,40.00,9,2,14,0.00
2012-1-15,65.0,54.6,42.0,39.0,27.1,12.0,51,35,23,0.00,40.00,9,3,13,0.00
2012-1-16,69.0,57.5,45.0,43.0,38.2,34.0,80,51,30,0.00,40.00,14,5,22,0.00
2012-1-17,70.0,52.3,40.0,36.0,31.5,24.0,81,51,18,0.00,40.00,4,1,10,0.00
2012-1-18,73.0,52.7,39.0,35.0,28.6,22.0,69,45,15,0.00,40.00,5,2,8,0.00
2012-1-19,79.0,50.0,39.0,33.0,29.0,23.0,70,49,13,0.00,40.00,4,1,6,0.00
2012-1-20,73.0,54.9,37.0,34.0,29.2,25.0,69,42,17,0.00,40.00,5,1,9,0.00
2012-1-21,75.0,59.7,49.0,48.0,34.6,27.0,58,40,25,0.00,40.00,18,5,35,0.00
2012-1-22,72.0,54.2,46.0,28.0,23.5,14.0,49,33,12,0.00,40.00,7,2,11,0.00
2012-1-23,72.0,53.0,42.0,53.0,29.0,17.0,77,43,12,0.00,40.00,9,3,25,0.00
2012-1-24,69.0,58.5,46.0,45.0,34.3,22.0,83,48,17,0.00,40.00,22,10,36,0.00
2012-1-25,76.0,63.9,53.0,29.0,20.1,17.0,39,20,11,0.00,40.00,13,6,25,0.00
2012-1-26,84.0,64.2,47.0,36.0,30.2,25.0,51,31,13,0.00,40.00,9,3,14,0.00
2012-1-27,78.0,64.2,48.0,38.0,29.3,14.0,56,31,14,0.00,40.00,17,9,28,0.00
2012-1-28,73.0,63.7,58.0,14.0,4.3,-4.0,14,10,6,0.00,40.00,24,15,36,0.00
2012-1-29,78.0,65.7,54.0,10.0,-2.0,-8.0,15,7,4,0.00,40.00,15,8,23,0.00
2012-1-30,80.0,59.6,41.0,21.0,10.7,4.0,29,16,7,0.00,40.00,4,2,7,0.00
2012-1-31,81.0,59.8,42.0,24.0,18.4,6.0,47,24,6,0.00,40.00,4,1,7,0.00
2012-2-1,78.0,57.9,43.0,30.0,22.9,15.0,45,29,10,0.00,40.00,8,2,12,0.00
2012-2-2,74.0,55.1,42.0,34.0,17.6,1.0,62,32,6,0.00,40.00,15,4,24,0.00
2012-2-3,72.0,58.7,48.0,21.0,12.7,4.0,31,17,11,0.00,40.00,10,5,19,0.00
2012-2-4,73.0,60.3,49.0,29.0,20.9,16.0,39,23,13,0.00,40.00,9,4,15,0.00
2012-2-5,73.0,60.3,48.0,29.0,20.3,15.0,41,24,12,0.00,40.00,9,4,16,0.00
2012-2-6,75.0,56.7,47.0,28.0,21.6,14.0,42,28,10,0.00,40.00,8,2,16,0.00
2012-2-7,71.0,58.6,44.0,31.0,24.1,20.0,44,28,16,0.00,40.00,14,3,21,0.00
2012-2-8,77.0,64.0,53.0,51.0,37.2,26.0,81,41,16,0.00,40.00,6,3,10,0.00
2012-2-9,84.0,71.2,58.0,35.0,27.3,21.0,33,21,10,0.00,40.00,10,5,18,0.00
2012-2-10,88.0,63.4,51.0,33.0,29.5,21.0,47,31,9,0.00,40.00,6,2,11,0.00
2012-2-11,79.0,61.5,49.0,38.0,32.4,26.0,53,35,17,0.00,40.00,21,7,30,0.00
2012-2-12,72.0,60.6,49.0,40.0,36.4,33.0,66,43,24,0.00,40.00,14,9,25,0.00
2012-2-13,70.0,57.3,42.0,49.0,40.7,30.0,89,58,30,0.00,40.00,12,5,23,0.00
2012-2-14,68.0,57.0,48.0,36.0,31.4,25.0,58,39,25,0.00,40.00,14,8,23,0.00
2012-2-15,69.0,54.8,42.0,49.0,39.0,32.0,90,59,31,0.00,40.00,15,5,23,0.00
2012-2-16,66.0,54.1,46.0,51.0,44.6,41.0,96,73,40,0.00,40.00,16,8,26,0.39
2012-2-17,73.0,57.3,42.0,50.0,40.0,28.0,100,62,19,0.00,40.00,8,3,16,0.01
2012-2-18,72.0,58.4,46.0,50.0,46.0,39.0,98,68,31,0.00,40.00,11,5,16,0.01
2012-2-19,72.0,59.4,49.0,47.0,39.4,24.0,91,53,17,0.00,40.00,10,5,18,0.00
2012-2-20,73.0,59.3,46.0,45.0,38.4,25.0,89,53,17,0.00,40.00,6,2,12,0.00
2012-2-21,77.0,62.2,50.0,45.0,23.7,12.0,72,28,9,0.00,40.00,10,5,19,0.00
2012-2-22,84.0,65.5,51.0,42.0,29.4,19.0,57,30,12,0.00,40.00,11,3,18,0.00
2012-2-23,86.0,64.2,47.0,46.0,39.1,27.0,85,48,12,0.00,40.00,7,2,14,0.00
2012-2-24,82.0,70.0,59.0,29.0,16.1,4.0,28,14,5,0.00,40.00,16,4,23,0.00
2012-2-25,85.0,65.8,48.0,36.0,26.0,13.0,45,25,10,0.00,40.00,6,3,12,0.00
2012-2-26,83.0,59.5,48.0,36.0,25.9,-2.0,56,34,4,0.00,40.00,13,2,21,0.00
2012-2-27,71.0,59.8,48.0,46.0,33.8,24.0,79,41,21,0.00,40.00,18,8,33,0.00
2012-2-28,66.0,55.1,47.0,34.0,29.1,22.0,54,39,20,0.00,40.00,20,7,35,0.00
2012-2-29,73.0,56.3,42.0,36.0,30.9,19.0,69,42,14,0.00,40.00,11,3,17,0.00
2012-3-1,75.0,61.8,50.0,41.0,34.8,24.0,71,40,15,0.00,40.00,16,9,25,0.00
2012-3-2,69.0,59.7,48.0,40.0,4.9,-17.0,71,21,3,0.00,40.00,24,12,37,0.00
2012-3-3,76.0,61.6,51.0,16.0,1.1,-7.0,22,9,5,0.00,40.00,17,8,27,0.00
2012-3-4,87.0,67.9,50.0,30.0,15.6,6.0,32,15,6,0.00,40.00,11,6,21,0.00
2012-3-5,91.0,67.8,51.0,30.0,21.6,11.0,34,21,5,0.00,40.00,7,2,11,0.00
2012-3-6,86.0,66.6,53.0,34.0,27.5,11.0,42,26,6,0.00,40.00,25,9,39,0.00
2012-3-7,64.0,56.8,48.0,34.0,13.3,-5.0,52,23,6,0.00,40.00,21,10,39,0.00
2012-3-8,77.0,60.1,44.0,24.0,14.9,9.0,28,18,10,0.00,40.00,11,5,22,0.00
2012-3-9,82.0,67.0,54.0,27.0,18.2,7.0,30,17,7,0.00,40.00,12,5,20,0.00
2012-3-10,81.0,65.5,54.0,30.0,22.4,-99.9,35,23,9,0.00,40.00,14,6,20,0.00
2012-3-11,84.0,64.9,50.0,44.0,24.9,7.0,57,26,6,0.00,40.00,9,4,16,0.00
2012-3-12,84.0,59.5,44.0,38.0,26.2,4.0,61,36,5,0.00,40.00,5,1,11,0.00
2012-3-13,86.0,64.8,46.0,40.0,32.3,22.0,71,37,10,0.00,40.00,7,2,16,0.00
2012-3-14,86.0,64.3,46.0,37.0,31.4,22.0,70,35,10,0.00,40.00,7,2,16,0.00
2012-3-15,90.0,66.4,52.0,39.0,31.5,21.0,57,32,9,0.00,40.00,5,2,12,0.00
2012-3-16,87.0,69.7,56.0,44.0,37.4,29.0,64,35,13,0.00,40.00,9,5,18,0.00
2012-3-17,74.0,64.0,53.0,50.0,43.0,36.0,72,48,32,0.00,40.00,15,5,28,0.01
2012-3-18,62.0,54.4,48.0,36.0,30.2,24.0,57,40,25,0.00,40.00,28,16,43,0.01
2012-3-19,66.0,53.4,42.0,41.0,33.8,29.0,66,49,25,0.00,40.00,12,6,21,0.00
2012-3-20,74.0,57.2,40.0,43.0,30.5,-99.9,85,45,10,0.00,40.00,7,3,18,0.00
2012-3-21,83.0,59.6,45.0,33.0,28.8,16.0,58,36,8,0.00,40.00,6,2,13,0.00
2012-3-22,89.0,68.9,49.0,35.0,30.6,25.0,53,28,11,0.00,40.00,9,3,14,0.00
2012-3-23,87.0,71.0,56.0,48.0,34.0,27.0,44,28,13,0.00,40.00,11,4,18,0.00
2012-3-24,86.0,68.5,53.0,43.0,35.4,22.0,50,32,11,0.00,40.00,8,4,15,0.00
2012-3-25,82.0,67.8,58.0,45.0,37.2,29.0,51,34,16,0.00,40.00,17,7,27,0.00
2012-3-26,76.0,63.9,54.0,41.0,33.9,28.0,52,35,18,0.00,40.00,14,6,27,0.00
2012-3-27,83.0,65.4,51.0,38.0,30.6,20.0,51,30,10,0.00,40.00,6,2,13,0.00
2012-3-28,87.0,65.1,52.0,39.0,29.3,8.0,58,32,6,0.00,40.00,7,4,16,0.00
2012-3-29,92.0,73.8,57.0,43.0,34.6,24.0,57,28,10,0.00,40.00,8,4,13,0.00
2012-3-30,91.0,74.9,55.0,47.0,38.5,31.0,61,31,12,0.00,40.00,8,3,13,0.00
2012-3-31,91.0,73.0,56.0,42.0,31.3,22.0,47,24,11,0.00,40.00,19,6,31,0.00
2012-4-1,75.0,65.1,55.0,45.0,30.9,17.0,57,32,13,0.00,40.00,19,13,36,0.00
2012-4-2,81.0,66.0,53.0,38.0,14.9,1.0,51,19,5,0.00,40.00,18,7,29,0.00
2012-4-3,87.0,70.1,50.0,22.0,10.9,5.0,21,11,5,0.00,40.00,9,4,20,0.00
2012-4-4,88.0,71.3,53.0,33.0,25.7,18.0,46,21,8,0.00,40.00,10,5,17,0.00
2012-4-5,88.0,70.7,55.0,30.0,21.8,10.0,30,18,6,0.00,40.00,14,5,22,0.00
2012-4-6,81.0,66.6,55.0,33.0,12.1,-8.0,44,16,3,0.00,40.00,17,10,31,0.00
2012-4-7,90.0,72.2,55.0,22.0,0.1,-23.0,21,9,1,0.00,40.00,10,5,18,0.00
2012-4-8,94.0,74.2,52.0,25.0,12.3,-7.0,21,11,2,0.00,40.00,6,2,11,0.00
2012-4-9,94.0,75.9,58.0,33.0,21.9,10.0,28,15,6,0.00,40.00,8,4,15,0.00
2012-4-10,91.0,74.3,54.0,49.0,32.7,21.0,50,24,9,0.00,40.00,20,8,31,0.00
2012-4-11,78.0,67.4,58.0,49.0,38.8,32.0,56,37,21,0.00,40.00,15,8,26,0.00
2012-4-12,77.0,65.5,53.0,41.0,32.3,23.0,60,32,14,0.00,40.00,18,11,30,0.00
2012-4-13,80.0,66.0,55.0,41.0,32.5,19.0,50,31,10,0.00,40.00,22,11,38,0.01
2012-4-14,70.0,58.7,51.0,36.0,30.1,-99.9,55,37,20,0.00,40.00,24,15,39,0.01
2012-4-15,79.0,62.7,44.0,37.0,32.9,27.0,70,38,15,0.00,40.00,6,3,16,0.00
2012-4-16,90.0,72.4,50.0,36.0,30.1,23.0,52,26,9,0.00,40.00,7,2,16,0.00
2012-4-17,96.0,77.7,58.0,33.0,25.2,18.0,35,18,6,0.00,40.00,7,2,16,0.00
2012-4-18,96.0,79.0,58.0,38.0,27.9,21.0,28,17,7,0.00,40.00,9,4,18,0.00
2012-4-19,99.0,80.8,61.0,43.0,34.3,30.0,36,21,10,0.00,40.00,7,2,14,0.00
2012-4-20,102.0,84.9,63.0,47.0,37.5,32.0,40,22,9,0.00,40.00,10,3,16,0.00
2012-4-21,105.0,86.7,66.0,47.0,38.2,28.0,39,22,7,0.00,40.00,9,4,18,0.00
2012-4-22,105.0,86.3,66.0,38.0,33.6,25.0,35,17,7,0.00,40.00,10,3,16,0.00
2012-4-23,92.0,80.4,69.0,48.0,39.3,30.0,40,24,13,0.00,40.00,16,8,25,0.00
2012-4-24,95.0,77.0,57.0,46.0,38.1,29.0,52,29,10,0.00,40.00,9,3,16,0.00
2012-4-25,93.0,81.6,74.0,52.0,41.5,34.0,44,26,13,0.00,40.00,11,5,21,0.00
2012-4-26,83.0,73.0,60.0,56.0,45.0,36.0,83,40,19,0.00,40.00,16,10,30,0.02
2012-4-27,89.0,74.5,58.0,49.0,42.7,37.0,70,36,16,0.00,40.00,12,6,25,0.02
2012-4-28,99.0,80.0,58.0,45.0,31.1,14.0,55,24,5,0.00,40.00,9,3,17,0.00
2012-4-29,94.0,75.4,64.0,51.0,36.7,-99.9,57,32,13,0.00,40.00,11,5,17,0.00
2012-4-30,94.0,77.9,63.0,56.0,42.8,25.0,60,34,9,0.00,40.00,10,5,19,0.00
2012-5-1,95.0,77.7,63.0,57.0,43.4,24.0,70,37,8,0.00,40.00,14,7,26,0.00
2012-5-2,91.0,76.9,63.0,60.0,48.2,38.0,79,40,20,0.00,40.00,7,4,14,0.00
2012-5-3,92.0,78.8,58.0,53.0,42.1,31.0,67,31,12,0.00,40.00,10,3,16,0.00
2012-5-4,97.0,80.9,60.0,49.0,34.6,15.0,61,25,5,0.00,40.00,12,4,19,0.00
2012-5-5,96.0,79.5,62.0,46.0,24.0,-99.9,45,18,3,0.00,40.00,11,4,18,0.00
2012-5-6,97.0,80.7,64.0,43.0,29.3,9.0,47,19,4,0.00,40.00,9,4,18,0.00
2012-5-7,98.0,81.1,59.0,47.0,17.6,-7.0,65,19,2,0.00,40.00,15,4,26,0.00
2012-5-8,94.0,84.1,70.0,20.0,10.1,-2.0,11,6,5,0.00,40.00,13,6,38,0.00
2012-5-9,103.0,84.5,61.0,43.0,20.6,-1.0,22,11,5,0.00,40.00,10,4,26,0.00
2012-5-10,102.0,84.8,69.0,49.0,36.5,13.0,36,21,4,0.00,40.00,13,6,26,0.00
2012-5-11,101.0,83.7,61.0,47.0,27.5,16.0,35,17,5,0.00,40.00,8,3,15,0.00
2012-5-12,101.0,81.2,63.0,46.0,31.6,-99.9,39,20,6,0.00,40.00,8,4,13,0.00
2012-5-13,108.0,85.1,66.0,48.0,34.5,20.0,36,20,5,0.00,40.00,9,2,15,0.00
2012-5-14,111.0,90.8,70.0,39.0,24.5,-1.0,31,13,2,0.00,40.00,12,4,24,0.00
2012-5-15,108.0,89.0,70.0,44.0,-4.1,-99.9,35,13,1,0.00,40.00,11,4,18,0.00
2012-5-16,109.0,87.1,69.0,59.0,32.1,0.0,52,21,2,0.00,40.00,10,5,17,0.00
2012-5-17,105.0,84.8,70.0,57.0,44.8,24.0,45,28,6,0.00,40.00,17,7,25,0.00
2012-5-18,97.0,86.7,74.0,56.0,29.2,10.0,44,16,4,0.00,40.00,15,8,23,0.00
2012-5-19,101.0,79.0,64.0,48.0,36.5,-99.9,49,27,6,0.00,40.00,6,4,19,0.00
2012-5-20,108.0,84.2,66.0,45.0,36.2,20.0,36,23,5,0.00,40.00,5,2,21,0.00
2012-5-21,110.0,97.9,71.0,33.0,25.9,20.0,23,9,5,0.00,40.00,8,4,21,0.00
2012-5-22,107.0,94.0,74.0,43.0,20.1,-1.0,21,9,2,0.00,40.00,10,5,17,0.00
2012-5-23,105.0,88.9,72.0,48.0,38.8,30.0,37,19,8,0.00,40.00,15,5,22,0.00
2012-5-24,95.0,82.9,69.0,62.0,52.0,41.0,72,38,19,0.00,40.00,14,6,22,0.00
2012-5-25,92.0,76.6,66.0,60.0,49.2,35.0,70,43,15,0.00,40.00,18,9,32,0.00
2012-5-26,83.0,68.0,56.0,39.0,31.8,22.0,44,28,11,0.00,40.00,26,13,43,0.00
2012-5-27,91.0,73.0,57.0,43.0,33.5,18.0,52,28,7,0.00,40.00,10,6,16,0.00
2012-5-28,99.0,83.3,61.0,39.0,26.3,13.0,30,15,5,0.00,40.00,10,4,14,0.00
2012-5-29,101.0,81.9,63.0,39.0,33.2,21.0,34,20,6,0.00,40.00,12,4,19,0.00
2012-5-30,104.0,85.6,65.0,38.0,25.6,-2.0,25,14,2,0.00,40.00,9,5,17,0.00
2012-5-31,114.0,84.2,69.0,55.0,40.9,15.0,55,29,3,0.00,40.00,10,5,20,0.00
2012-6-1,114.0,98.0,73.0,42.0,31.0,13.0,27,12,3,0.00,40.00,16,5,22,0.00
2012-6-2,106.0,83.2,70.0,61.0,40.8,-99.9,36,25,6,0.00,40.00,12,5,26,0.00
2012-6-3,101.0,85.6,71.0,53.0,47.8,37.0,50,30,11,0.00,40.00,12,6,21,0.00
2012-6-4,102.0,84.7,70.0,53.0,46.8,40.0,50,29,13,0.00,40.00,13,6,20,0.00
2012-6-5,99.0,84.4,73.0,47.0,35.5,8.0,39,22,4,0.00,40.00,14,9,23,0.00
2012-6-6,103.0,83.2,67.0,51.0,34.1,10.0,55,24,4,0.00,40.00,10,6,25,0.00
2012-6-7,104.0,87.2,66.0,56.0,40.9,27.0,52,25,8,0.00,40.00,9,4,17,0.00
2012-6-8,104.0,85.1,69.0,54.0,39.3,20.0,44,23,5,0.00,40.00,13,5,18,0.00
2012-6-9,103.0,85.0,72.0,48.0,40.8,30.0,43,24,8,0.00,40.00,11,4,18,0.00
2012-6-10,104.0,91.1,70.0,47.0,32.5,19.0,28,14,5,0.00,40.00,9,4,14,0.00
2012-6-11,106.0,88.3,72.0,67.0,46.0,29.0,75,33,7,0.00,40.00,9,5,18,0.00
2012-6-12,107.0,88.1,68.0,47.0,32.8,16.0,31,17,4,0.00,40.00,8,4,13,0.00
2012-6-13,108.0,88.7,72.0,48.0,37.9,9.0,34,20,3,0.00,40.00,9,2,19,0.00
2012-6-14,101.0,84.4,74.0,53.0,43.0,26.0,47,26,7,0.00,40.00,14,5,25,0.00
2012-6-15,99.0,82.9,71.0,54.0,47.2,30.0,47,32,9,0.00,40.00,15,7,25,0.00
2012-6-16,104.0,82.4,72.0,54.0,39.5,-99.9,45,27,8,0.00,40.00,7,4,16,0.00
2012-6-17,111.0,91.2,72.0,43.0,35.9,20.0,31,17,5,0.00,40.00,7,2,11,0.00
2012-6-18,114.0,97.1,79.0,41.0,26.6,-1.0,23,11,2,0.00,40.00,23,10,39,0.00
2012-6-19,110.0,94.1,82.0,28.0,16.1,-14.0,12,7,1,0.00,40.00,20,12,34,0.00
2012-6-20,112.0,98.3,74.0,53.0,27.6,0.0,25,11,3,0.00,40.00,10,5,16,0.00
2012-6-21,107.0,89.8,74.0,66.0,49.7,41.0,49,27,12,0.00,40.00,11,6,21,0.00
2012-6-22,107.0,92.2,72.0,63.0,31.7,16.0,49,14,4,0.00,40.00,16,8,26,0.00
2012-6-23,106.0,88.7,73.0,50.0,25.9,10.0,22,12,4,0.00,40.00,14,4,25,0.00
2012-6-24,107.0,89.3,74.0,54.0,40.0,24.0,34,19,6,0.00,40.00,10,4,21,0.00
2012-6-25,107.0,94.9,76.0,52.0,38.2,22.0,35,16,6,0.00,40.00,9,4,14,0.00
2012-6-26,110.0,95.3,79.0,47.0,32.9,5.0,32,13,3,0.00,40.00,9,5,15,0.00
2012-6-27,111.0,97.2,80.0,51.0,42.1,25.0,28,16,7,0.00,40.00,14,6,22,0.00
2012-6-28,110.0,93.8,82.0,60.0,52.1,46.0,36,26,13,0.00,40.00,13,5,21,0.00
2012-6-29,113.0,94.2,78.0,54.0,40.6,20.0,30,19,5,0.00,40.00,15,3,23,0.00
2012-6-30,110.0,95.4,78.0,54.0,28.5,3.0,27,12,2,0.00,40.00,14,5,23,0.00
2012-7-1,109.0,93.8,76.0,37.0,28.4,15.0,20,11,4,0.00,40.00,10,5,19,0.00
2012-7-2,103.0,91.0,75.0,67.0,52.4,34.0,49,28,14,0.00,40.00,11,6,24,0.00
2012-7-3,94.0,85.2,77.0,71.0,65.1,57.0,77,53,32,0.00,40.00,17,9,26,0.02
2012-7-4,99.0,87.6,81.0,71.0,60.8,48.0,70,44,21,0.00,40.00,12,6,19,0.02
2012-7-5,102.0,88.7,75.0,64.0,52.5,40.0,69,33,12,0.00,40.00,12,6,20,0.00
2012-7-6,107.0,90.1,69.0,55.0,43.8,32.0,41,23,8,0.00,40.00,9,4,15,0.00
2012-7-7,111.0,95.9,74.0,52.0,31.8,18.0,36,15,4,0.00,40.00,10,6,20,0.00
2012-7-8,115.0,99.1,79.0,38.0,28.8,15.0,22,10,4,0.00,40.00,10,5,22,0.00
2012-7-9,115.0,99.3,82.0,64.0,42.7,35.0,35,16,8,0.00,40.00,10,4,14,0.00
2012-7-10,117.0,101.3,86.0,68.0,53.5,40.0,45,25,8,0.00,40.00,10,5,19,0.00
2012-7-11,109.0,96.6,88.0,66.0,60.8,53.0,42,32,19,0.00,40.00,15,9,25,0.00
2012-7-12,102.0,89.5,78.0,79.0,64.8,54.0,86,49,23,0.00,40.00,23,6,33,0.07
2012-7-13,101.0,90.5,82.0,79.0,68.2,63.0,68,49,31,0.00,40.00,15,7,29,0.01
2012-7-14,104.0,91.7,79.0,73.0,65.9,57.0,78,47,22,0.00,40.00,10,5,21,0.00
2012-7-15,105.0,93.9,84.0,69.0,62.4,52.0,56,38,18,0.00,40.00,12,8,19,0.00
2012-7-16,107.0,93.3,80.0,64.0,46.3,28.0,58,24,9,0.00,40.00,13,5,19,0.00
2012-7-17,104.0,90.4,71.0,36.0,24.1,11.0,26,11,4,0.00,40.00,12,5,20,0.00
2012-7-18,109.0,93.7,78.0,47.0,32.2,17.0,25,13,4,0.00,40.00,10,5,20,0.00
2012-7-19,106.0,94.0,81.0,65.0,53.8,46.0,40,27,15,0.00,40.00,9,4,17,0.00
2012-7-20,112.0,96.5,81.0,65.0,54.6,47.0,45,27,12,0.00,40.00,9,3,17,0.00
2012-7-21,107.0,96.0,86.0,71.0,64.3,57.0,62,39,21,0.00,40.00,17,8,17,0.00
2012-7-22,109.0,96.1,86.0,72.0,63.5,59.0,51,36,22,0.00,40.00,17,7,27,0.02
2012-7-23,109.0,97.9,86.0,69.0,59.6,53.0,53,30,18,0.00,40.00,11,7,18,0.00
2012-7-24,111.0,98.7,84.0,60.0,48.4,38.0,36,20,9,0.00,40.00,10,4,19,0.00
2012-7-25,110.0,97.6,83.0,67.0,40.8,11.0,41,17,4,0.00,40.00,9,3,18,0.00
2012-7-26,110.0,94.7,78.0,68.0,53.0,23.0,56,31,5,0.00,40.00,8,4,18,0.00
2012-7-27,112.0,95.4,77.0,68.0,43.2,11.0,56,26,3,0.00,40.00,12,4,19,0.00
2012-7-28,106.0,91.6,77.0,69.0,51.5,24.0,51,28,10,0.00,40.00,15,7,24,0.00
2012-7-29,97.0,90.6,85.0,78.0,66.9,58.0,68,48,30,0.00,40.00,11,7,21,0.00
2012-7-30,97.0,83.5,75.0,79.0,72.1,61.0,92,71,33,0.00,40.00,17,6,25,0.52
2012-7-31,91.0,83.0,75.0,75.0,72.8,70.0,95,73,53,0.00,40.00,7,4,12,0.31
2012-8-1,102.0,88.6,79.0,78.0,68.6,52.0,89,57,19,0.00,40.00,6,3,13,0.00
2012-8-2,106.0,100.3,90.0,65.0,58.9,52.0,40,27,18,0.00,40.00,8,5,18,0.00
2012-8-3,108.0,96.0,84.0,68.0,56.5,41.0,52,31,12,0.00,40.00,10,4,15,0.00
2012-8-4,109.0,95.5,80.0,66.0,54.9,39.0,52,29,11,0.00,40.00,10,5,18,0.00
2012-8-5,108.0,93.1,80.0,71.0,60.5,50.0,52,36,17,0.00,40.00,12,6,20,0.00
2012-8-6,112.0,97.7,86.0,69.0,60.3,49.0,52,34,14,0.00,40.00,7,3,13,0.00
2012-8-7,111.0,98.4,88.0,70.0,61.8,52.0,56,33,15,0.00,40.00,10,5,19,0.00
2012-8-8,115.0,99.2,85.0,68.0,59.8,44.0,50,31,10,0.00,40.00,11,5,17,0.00
2012-8-9,110.0,97.5,88.0,73.0,67.1,56.0,59,39,18,0.00,40.00,16,7,25,0.00
2012-8-10,114.0,98.4,86.0,73.0,62.7,52.0,62,35,14,0.00,40.00,14,5,21,0.00
2012-8-11,115.0,100.0,89.0,66.0,54.5,-99.9,44,25,12,0.00,40.00,12,4,20,0.00
2012-8-12,118.0,103.1,88.0,65.0,56.8,46.0,43,24,11,0.00,40.00,13,4,22,0.00
2012-8-13,117.0,102.2,90.0,60.0,53.6,44.0,37,22,10,0.00,40.00,14,4,29,0.00
2012-8-14,115.0,97.6,84.0,79.0,60.3,46.0,51,32,11,0.00,40.00,12,6,24,0.00
2012-8-15,100.0,92.3,86.0,76.0,69.2,57.0,68,49,27,0.00,40.00,18,10,32,0.00
2012-8-16,99.0,89.3,85.0,77.0,72.2,63.0,70,58,36,0.00,40.00,12,6,18,0.00
2012-8-17,96.0,87.1,80.0,79.0,72.1,66.0,84,62,44,0.00,40.00,16,8,29,0.02
2012-8-18,101.0,90.4,81.0,78.0,72.0,65.0,83,58,32,0.00,40.00,10,6,17,0.00
2012-8-19,106.0,93.1,82.0,75.0,69.3,62.0,76,50,28,0.00,40.00,8,5,19,0.00
2012-8-20,106.0,94.5,84.0,76.0,69.3,62.0,73,47,26,0.00,40.00,13,8,25,0.00
2012-8-21,105.0,93.3,84.0,76.0,67.3,61.0,75,46,24,0.00,40.00,11,8,29,0.00
2012-8-22,105.0,92.5,82.0,81.0,66.9,58.0,64,46,23,0.00,40.00,17,8,25,0.02
2012-8-23,105.0,91.9,80.0,77.0,66.6,58.0,70,47,24,0.00,40.00,9,4,19,0.02
2012-8-24,106.0,93.1,83.0,76.0,68.0,57.0,78,49,21,0.00,40.00,12,5,19,0.00
2012-8-25,107.0,93.2,81.0,67.0,60.5,52.0,57,37,17,0.00,40.00,11,6,20,0.00
2012-8-26,108.0,93.9,79.0,71.0,57.5,49.0,53,33,15,0.00,40.00,11,3,17,0.00
2012-8-27,113.0,96.2,79.0,71.0,51.6,36.0,54,28,8,0.00,40.00,7,2,17,0.00
2012-8-28,112.0,97.6,86.0,74.0,57.6,47.0,67,29,15,0.00,40.00,11,5,18,0.00
2012-8-29,105.0,95.1,84.0,78.0,66.3,59.0,76,42,24,0.00,40.00,13,9,29,0.00
2012-8-30,91.0,85.4,81.0,77.0,70.1,61.0,76,61,46,0.00,40.00,14,5,23,0.01
2012-8-31,104.0,89.5,78.0,76.0,69.2,60.0,85,56,27,0.00,40.00,10,6,19,0.01
2012-9-1,110.0,94.5,83.0,76.0,49.8,27.0,75,33,7,0.00,40.00,7,3,14,0.00
2012-9-2,111.0,97.2,81.0,69.0,41.3,23.0,45,17,7,0.00,40.00,10,4,16,0.00
2012-9-3,105.0,93.8,83.0,77.0,71.2,62.0,78,51,27,0.00,40.00,13,8,24,0.00
2012-9-4,103.0,90.8,84.0,77.0,71.8,66.0,70,56,32,0.00,40.00,13,7,30,0.00
2012-9-5,105.0,92.6,81.0,78.0,70.9,59.0,85,54,25,0.00,40.00,12,5,18,0.00
2012-9-6,101.0,91.9,83.0,78.0,69.8,61.0,83,52,28,0.00,40.00,11,5,22,0.00
2012-9-7,103.0,92.7,82.0,72.0,66.2,60.0,68,44,27,0.00,40.00,9,5,16,0.00
2012-9-8,105.0,93.9,85.0,72.0,66.6,60.0,61,43,26,0.00,40.00,9,5,18,0.00
2012-9-9,105.0,90.6,79.0,80.0,66.4,51.0,84,49,22,0.00,40.00,27,6,52,0.07
2012-9-10,87.0,80.3,76.0,75.0,71.1,67.0,83,74,56,0.00,40.00,11,5,16,0.06
2012-9-11,92.0,82.7,75.0,73.0,69.0,64.0,85,65,44,0.00,40.00,11,7,19,0.01
2012-9-12,102.0,88.3,76.0,74.0,66.3,59.0,85,53,26,0.00,40.00,6,2,12,0.00
2012-9-13,108.0,93.3,80.0,68.0,58.8,47.0,66,36,16,0.00,40.00,8,3,15,0.00
2012-9-14,104.0,92.2,84.0,60.0,44.4,23.0,36,22,6,0.00,40.00,23,12,34,0.00
2012-9-15,100.0,87.3,77.0,47.0,39.2,28.0,29,20,8,0.00,40.00,20,5,29,0.00
2012-9-16,103.0,89.2,75.0,71.0,59.8,44.0,69,40,24,0.00,40.00,9,5,19,0.00
2012-9-17,105.0,85.9,75.0,73.0,59.7,33.0,89,52,9,0.00,40.00,7,2,16,0.00
2012-9-18,109.0,87.1,72.0,66.0,53.7,33.0,75,40,9,0.00,40.00,7,2,11,0.00
2012-9-19,109.0,92.4,74.0,59.0,49.5,40.0,50,28,10,0.00,40.00,7,2,13,0.00
2012-9-20,110.0,92.9,77.0,52.0,42.5,31.0,36,21,7,0.00,40.00,5,2,13,0.00
2012-9-21,110.0,91.5,77.0,60.0,48.0,31.0,52,27,7,0.00,40.00,7,2,15,0.00
2012-9-22,112.0,92.8,75.0,52.0,41.0,-99.9,41,21,8,0.00,40.00,6,2,14,0.00
2012-9-23,113.0,96.9,77.0,50.0,37.9,29.0,29,15,6,0.00,40.00,6,2,13,0.00
2012-9-24,107.0,88.9,76.0,66.0,48.4,29.0,62,31,7,0.00,40.00,15,4,22,0.00
2012-9-25,102.0,88.9,74.0,46.0,41.4,32.0,34,21,11,0.00,40.00,12,6,20,0.00
2012-9-26,104.0,84.0,70.0,47.0,40.6,32.0,37,24,9,0.00,40.00,5,2,12,0.00
2012-9-27,100.0,86.7,74.0,74.0,64.2,45.0,91,54,17,0.00,40.00,9,5,19,0.00
2012-9-28,101.0,85.6,72.0,73.0,61.8,47.0,93,53,19,0.00,40.00,6,2,13,0.00
2012-9-29,105.0,87.8,70.0,52.0,45.4,37.0,48,27,10,0.00,40.00,4,1,11,0.00
2012-9-30,109.0,96.3,75.0,43.0,34.8,30.0,28,13,7,0.00,40.00,8,5,16,0.00
2012-10-1,111.0,93.6,75.0,36.0,27.4,15.0,22,11,4,0.00,40.00,9,3,15,0.00
2012-10-2,110.0,93.2,75.0,50.0,31.7,18.0,24,13,4,0.00,40.00,8,3,15,0.00
2012-10-3,107.0,88.2,73.0,65.0,44.1,22.0,77,29,5,0.00,40.00,14,6,23,0.00
2012-10-4,102.0,89.7,77.0,43.0,33.9,25.0,25,15,7,0.00,40.00,11,5,20,0.00
2012-10-5,102.0,82.8,63.0,37.0,29.5,23.0,35,17,7,0.00,40.00,5,2,13,0.00
2012-10-6,101.0,82.6,65.0,58.0,42.3,29.0,54,29,9,0.00,40.00,8,3,12,0.00
2012-10-7,97.0,84.3,70.0,66.0,43.5,35.0,58,26,12,0.00,40.00,9,4,14,0.00
2012-10-8,97.0,81.3,67.0,66.0,59.0,48.0,71,50,20,0.00,40.00,9,3,20,0.00
2012-10-9,95.0,81.9,69.0,68.0,63.2,56.0,77,56,31,0.00,40.00,10,4,20,0.00
2012-10-10,93.0,82.1,71.0,70.0,55.2,41.0,80,45,22,0.00,40.00,10,4,19,0.00
2012-10-11,81.0,74.0,67.0,50.0,41.2,33.0,48,32,18,0.00,40.00,16,11,26,0.01
2012-10-12,81.0,69.9,59.0,49.0,42.7,37.0,61,40,21,0.00,40.00,13,7,24,0.01
2012-10-13,88.0,72.1,55.0,48.0,42.9,33.0,69,40,15,0.00,40.00,7,3,17,0.00
2012-10-14,96.0,75.4,62.0,43.0,40.0,32.0,46,31,12,0.00,40.00,16,4,21,0.00
2012-10-15,102.0,81.8,69.0,42.0,37.3,30.0,31,22,9,0.00,40.00,10,2,15,0.00
2012-10-16,100.0,77.1,61.0,52.0,42.5,28.0,67,35,8,0.00,40.00,4,1,7,0.00
2012-10-17,99.0,81.8,65.0,71.0,56.8,32.0,100,49,13,0.00,40.00,7,4,14,0.00
2012-10-18,96.0,82.6,73.0,71.0,64.9,58.0,84,58,32,0.00,40.00,7,4,13,0.00
2012-10-19,99.0,79.8,65.0,68.0,54.9,32.0,90,52,10,0.00,40.00,7,1,13,0.00
2012-10-20,95.0,81.1,62.0,63.0,49.4,31.0,53,35,19,0.00,40.00,6,3,14,0.00
2012-10-21,90.0,76.4,64.0,53.0,49.2,41.0,61,41,21,0.00,40.00,8,3,17,0.00
2012-10-22,90.0,71.5,61.0,52.0,46.7,34.0,65,45,14,0.00,40.00,5,2,13,0.00
2012-10-23,84.0,72.7,57.0,49.0,41.1,34.0,63,35,18,0.00,40.00,13,5,20,0.00
2012-10-24,84.0,70.6,58.0,44.0,35.8,28.0,47,30,14,0.00,40.00,13,6,20,0.00
2012-10-25,86.0,72.6,60.0,36.0,17.4,11.0,36,14,6,0.00,40.00,10,5,17,0.00
2012-10-26,82.0,73.7,68.0,19.0,12.8,4.0,14,10,5,0.00,40.00,17,10,31,0.00
2012-10-27,88.0,74.9,64.0,17.0,8.3,-4.0,14,8,3,0.00,40.00,13,5,20,0.00
2012-10-28,96.0,74.7,54.0,23.0,12.9,4.0,17,10,4,0.00,40.00,4,1,9,0.00
2012-10-29,96.0,72.8,52.0,23.0,16.8,10.0,27,14,5,0.00,40.00,3,1,8,0.00
2012-10-30,96.0,70.7,54.0,28.0,20.4,8.0,28,17,4,0.00,40.00,2,1,6,0.00
2012-10-31,95.0,77.0,51.0,27.0,21.0,10.0,27,14,6,0.00,40.00,4,1,9,0.00
2012-11-1,91.0,78.2,52.0,62.0,33.2,15.0,74,22,10,0.00,40.00,8,3,10,0.00
2012-11-2,88.0,72.0,55.0,60.0,50.2,37.0,92,53,22,0.00,40.00,4,2,11,0.00
2012-11-3,94.0,69.2,53.0,45.0,39.3,23.0,61,38,9,0.00,40.00,4,1,8,0.00
2012-11-4,93.0,75.0,60.0,36.0,25.5,14.0,30,18,7,0.00,40.00,10,2,16,0.00
2012-11-5,96.0,79.1,69.0,27.0,21.1,12.0,20,12,6,0.00,40.00,8,2,14,0.00
2012-11-6,99.0,76.2,58.0,31.0,25.8,19.0,31,18,7,0.00,40.00,5,1,11,0.00
2012-11-7,96.0,70.8,54.0,40.0,32.4,18.0,41,27,8,0.00,40.00,4,1,8,0.00
2012-11-8,85.0,72.2,55.0,56.0,42.5,22.0,53,36,19,0.00,40.00,10,4,22,0.00
2012-11-9,74.0,65.7,54.0,54.0,42.5,34.0,76,45,29,0.00,40.00,23,12,36,0.00
2012-11-10,68.0,59.2,50.0,40.0,31.1,19.0,63,37,16,0.00,40.00,16,10,29,0.00
2012-11-11,68.0,55.3,40.0,37.0,20.9,9.0,62,32,11,0.00,40.00,10,4,18,0.00
2012-11-12,72.0,55.9,49.0,15.0,7.4,2.0,20,15,7,0.00,40.00,13,6,22,0.00
2012-11-13,78.0,62.9,51.0,23.0,9.6,-4.0,20,13,4,0.00,40.00,11,5,19,0.00
2012-11-14,82.0,67.8,51.0,21.0,6.4,-99.9,21,10,5,0.00,40.00,8,3,17,0.00
2012-11-15,72.0,64.2,59.0,31.0,14.9,5.0,28,15,11,0.00,40.00,6,2,10,0.00
2012-11-16,84.0,66.6,49.0,31.0,21.8,7.0,30,20,8,0.00,40.00,4,1,8,0.00
2012-11-17,82.0,68.9,56.0,51.0,39.3,27.0,52,35,24,0.00,40.00,12,4,19,0.00
2012-11-18,81.0,66.0,52.0,53.0,45.1,38.0,80,50,26,0.00,40.00,9,2,15,0.00
2012-11-19,82.0,64.7,48.0,46.0,40.0,32.0,75,45,19,0.00,40.00,3,1,11,0.00
2012-11-20,85.0,66.1,49.0,44.0,36.8,26.0,64,38,14,0.00,40.00,7,2,13,0.00
2012-11-21,85.0,65.1,49.0,44.0,32.3,25.0,61,34,12,0.00,40.00,3,1,8,0.00
2012-11-22,84.0,65.1,46.0,44.0,31.8,20.0,53,33,13,0.00,40.00,6,2,13,0.00
2012-11-23,86.0,69.7,55.0,41.0,27.9,22.0,49,24,10,0.00,40.00,12,5,18,0.00
2012-11-24,88.0,75.1,66.0,27.0,22.2,18.0,20,14,9,0.00,40.00,14,7,19,0.00
2012-11-25,86.0,68.3,52.0,44.0,27.6,17.0,45,24,9,0.00,40.00,5,1,9,0.00
2012-11-26,64.0,55.2,51.0,46.0,40.6,37.0,71,58,45,0.00,40.00,2,1,6,0.00
2012-11-27,91.0,67.6,48.0,37.0,28.8,17.0,54,28,9,0.00,40.00,4,1,9,0.00
2012-11-28,80.0,63.4,49.0,53.0,37.5,28.0,62,40,25,0.00,40.00,4,2,10,0.00
2012-11-29,83.0,64.9,49.0,54.0,50.0,44.0,99,64,31,0.00,40.00,5,1,12,0.00
2012-11-30,81.0,67.6,53.0,56.0,49.6,44.0,82,56,32,0.00,40.00,7,3,15,0.00
2012-12-1,83.0,67.0,50.0,56.0,48.1,40.0,93,56,24,0.00,40.00,7,2,13,0.00
2012-12-2,82.0,64.7,49.0,52.0,47.4,37.0,84,57,28,0.00,40.00,11,2,19,0.00
2012-12-3,82.0,67.4,55.0,52.0,47.9,43.0,81,52,28,0.00,40.00,5,2,10,0.00
2012-12-4,85.0,68.4,54.0,54.0,46.2,37.0,75,49,21,0.00,40.00,8,2,13,0.00
2012-12-5,86.0,70.0,57.0,49.0,41.8,34.0,63,40,17,0.00,40.00,8,2,12,0.00
2012-12-6,85.0,61.6,50.0,48.0,38.2,-99.9,72,48,20,0.00,40.00,8,1,14,0.00
2012-12-7,82.0,65.4,51.0,48.0,35.8,26.0,73,39,13,0.00,40.00,9,3,16,0.00
2012-12-8,79.0,60.2,50.0,28.0,20.6,10.0,35,23,10,0.00,40.00,5,2,12,0.00
2012-12-9,79.0,54.5,41.0,25.0,20.4,13.0,42,29,11,0.00,40.00,8,2,23,0.00
2012-12-10,72.0,64.0,51.0,28.0,19.6,11.0,34,20,11,0.00,40.00,11,6,28,0.00
2012-12-11,76.0,57.8,44.0,29.0,22.6,17.0,41,28,13,0.00,40.00,3,1,9,0.00
2012-12-12,74.0,59.7,47.0,52.0,31.6,12.0,74,36,23,0.00,40.00,10,5,17,0.00
2012-12-13,70.0,57.7,52.0,54.0,45.4,39.0,94,67,33,0.00,40.00,12,5,23,0.77
2012-12-14,63.0,55.4,48.0,53.0,43.4,36.0,95,66,44,0.00,40.00,9,4,16,0.61
2012-12-15,62.0,54.0,49.0,51.0,46.8,44.0,90,77,59,0.00,40.00,9,3,16,0.00
2012-12-16,66.0,54.5,44.0,52.0,44.6,36.0,97,71,43,0.00,40.00,6,2,11,0.00
2012-12-17,69.0,58.9,53.0,54.0,46.6,38.0,79,65,45,0.00,40.00,8,4,12,0.00
2012-12-18,66.0,57.7,50.0,58.0,46.7,36.0,94,68,43,0.00,40.00,19,6,30,0.00
2012-12-19,61.0,51.8,43.0,37.0,21.5,8.0,57,33,13,0.00,40.00,14,6,29,0.00
2012-12-20,61.0,50.6,42.0,25.0,18.7,13.0,43,29,17,0.00,40.00,10,6,18,0.00
2012-12-21,66.0,51.1,43.0,28.0,21.1,13.0,42,32,14,0.00,40.00,10,6,15,0.00
2012-12-22,69.0,53.9,39.0,39.0,30.1,19.0,83,45,16,0.00,40.00,3,1,7,0.00
2012-12-23,69.0,51.5,38.0,44.0,35.8,27.0,90,60,26,0.00,40.00,7,1,12,0.00
2012-12-24,73.0,57.6,47.0,46.0,41.8,34.0,90,59,31,0.00,40.00,13,4,22,0.00
2012-12-25,62.0,55.7,48.0,45.0,16.1,-2.0,72,24,10,0.00,40.00,13,5,21,0.00
2012-12-26,65.0,52.0,39.0,41.0,26.4,13.0,66,41,17,0.00,40.00,10,3,17,0.00
2012-12-27,65.0,51.2,38.0,41.0,34.6,29.0,91,58,28,0.00,40.00,7,2,13,0.00
2012-12-28,67.0,51.3,37.0,35.0,26.8,16.0,73,43,16,0.00,40.00,6,1,9,0.00
2012-12-29,66.0,49.3,38.0,32.0,27.6,18.0,70,47,18,0.00,40.00,2,0,7,0.00
2012-12-30,62.0,50.5,40.0,44.0,33.5,27.0,80,55,29,0.00,40.00,13,4,21,0.00
2012-12-31,62.0,49.0,38.0,44.0,32.2,13.0,98,60,15,0.00,40.00,9,2,16,0.00
2013-1-1,61.0,48.1,36.0,32.0,21.2,10.0,83,40,16,0.00,40.00,12,4,17,0.00